Location: Newark
(46.7000°N, 60.6000°W)
Time: 13:37:08
(UTC+00:00)

A-11 Canister half - Pass Details

Date: 30 October 2020
Orbit: 1525 x 1684 km, 47.3° (Epoch: 01 December)

Event Time Altitude Azimuth Distance (km) Brightness Sun altitude
Rises 19:29:59 0° 254° (WSW) 4,780 13.1 11.2°
Reaches altitude 10° 19:33:06 10° 254° (WSW) 3,776 12.8 10.8°
Maximum altitude 19:42:40 87° 168° (SSE) 1,551 9.3 9.4°
Drops below altitude 10° 19:52:01 10° 80° (E) 3,697 10.5 8.0°
Sets 19:55:02 0° 80° (E) 4,677 10.9 7.6°
